| time (UTC) | temp F | wind direction | speed MPH | gust MPH | rain 1hr in | rain 24hr in | rain mn in | humidity % | barometer mb |
| 20260903182213 | 82 | 199 | 9.0 | 0.0 | 0.00 | 0.00 | 0.00 | 27 | 962.4 |
| 20260903181711 | 82 | 156 | 10.0 | 0.0 | 0.00 | 0.00 | 0.00 | 28 | 962.4 |
| 20260903181211 | 82 | 102 | 10.0 | 0.0 | 0.00 | 0.00 | 0.00 | 29 | 962.4 |
| 20260903180712 | 81 | 173 | 9.0 | 0.0 | 0.00 | 0.00 | 0.00 | 29 | 962.4 |
| 20260903180212 | 81 | 165 | 9.0 | 0.0 | 0.00 | 0.00 | 0.00 | 31 | 962.4 |
| 20260903175642 | 81 | 132 | 8.0 | 0.0 | 0.00 | 0.00 | 0.00 | 31 | 962.4 |
| 20260903175141 | 80 | 127 | 8.0 | 0.0 | 0.00 | 0.00 | 0.00 | 31 | 962.4 |
| 20260903174642 | 79 | 144 | 9.0 | 0.0 | 0.00 | 0.00 | 0.00 | 32 | 962.4 |
| 20260903174141 | 79 | 117 | 9.0 | 0.0 | 0.00 | 0.00 | 0.00 | 33 | 962.4 |
| 20260903173713 | 78 | 122 | 9.0 | 0.0 | 0.00 | 0.00 | 0.00 | 34 | 962.4 |
| 20260903173210 | 78 | 202 | 9.0 | 0.0 | 0.00 | 0.00 | 0.00 | 34 | 962.4 |
| 20260903172641 | 78 | 182 | 8.0 | 0.0 | 0.00 | 0.00 | 0.00 | 34 | 962.4 |
| 20260903172144 | 77 | 129 | 7.0 | 0.0 | 0.00 | 0.00 | 0.00 | 37 | 962.4 |
| 20260903171644 | 76 | 78 | 7.0 | 0.0 | 0.00 | 0.00 | 0.00 | 39 | 962.4 |
| 20260903171147 | 77 | 137 | 8.0 | 0.0 | 0.00 | 0.00 | 0.00 | 38 | 962.8 |
| 20260903170643 | 76 | 160 | 8.0 | 0.0 | 0.00 | 0.00 | 0.00 | 39 | 962.4 |
| 20260903170143 | 76 | 114 | 10.0 | 0.0 | 0.00 | 0.00 | 0.00 | 41 | 962.8 |
| 20260903165642 | 75 | 182 | 9.0 | 0.0 | 0.00 | 0.00 | 0.00 | 40 | 962.8 |
| 20260903165142 | 75 | 151 | 9.0 | 0.0 | 0.00 | 0.00 | 0.00 | 42 | 962.8 |
| 20260903164642 | 75 | 137 | 9.0 | 0.0 | 0.00 | 0.00 | 0.00 | 40 | 962.8 |
| 20260903164239 | 75 | 167 | 7.0 | 0.0 | 0.00 | 0.00 | 0.00 | 44 | 962.8 |
| 20260903163739 | 75 | 150 | 7.0 | 0.0 | 0.00 | 0.00 | 0.00 | 43 | 962.8 |
| 20260903163240 | 75 | 114 | 6.0 | 0.0 | 0.00 | 0.00 | 0.00 | 45 | 962.8 |
| 20260903162739 | 74 | 70 | 7.0 | 0.0 | 0.00 | 0.00 | 0.00 | 47 | 962.8 |
| 20260903162142 | 73 | 127 | 7.0 | 0.0 | 0.00 | 0.00 | 0.00 | 48 | 962.8 |
| 20260903161738 | 73 | 121 | 6.0 | 0.0 | 0.00 | 0.00 | 0.00 | 48 | 962.8 |
| 20260903161240 | 73 | 132 | 5.0 | 0.0 | 0.00 | 0.00 | 0.00 | 48 | 962.8 |
| 20260903160642 | 73 | 91 | 6.0 | 0.0 | 0.00 | 0.00 | 0.00 | 48 | 962.8 |
| 20260903160239 | 72 | 114 | 4.0 | 0.0 | 0.00 | 0.00 | 0.00 | 49 | 963.1 |
| 20260903155642 | 72 | 141 | 6.0 | 0.0 | 0.00 | 0.00 | 0.00 | 51 | 962.8 |
| 20260903155238 | 71 | 61 | 5.0 | 0.0 | 0.00 | 0.00 | 0.00 | 50 | 962.8 |
| 20260903154643 | 72 | 87 | 4.0 | 0.0 | 0.00 | 0.00 | 0.00 | 49 | 963.1 |
| 20260903154239 | 71 | 92 | 4.0 | 0.0 | 0.00 | 0.00 | 0.00 | 48 | 963.1 |
| 20260903153737 | 71 | 154 | 4.0 | 0.0 | 0.00 | 0.00 | 0.00 | 47 | 963.1 |
| 20260903153236 | 71 | 124 | 4.0 | 0.0 | 0.00 | 0.00 | 0.00 | 46 | 963.1 |
| 20260903152643 | 70 | 93 | 3.0 | 0.0 | 0.00 | 0.00 | 0.00 | 46 | 963.1 |
| 20260903152236 | 70 | 38 | 3.0 | 0.0 | 0.00 | 0.00 | 0.00 | 47 | 963.1 |
| 20260903151641 | 69 | 110 | 3.0 | 0.0 | 0.00 | 0.00 | 0.00 | 48 | 963.1 |
| 20260903151238 | 69 | 0 | 3.0 | 0.0 | 0.00 | 0.00 | 0.00 | 49 | 963.1 |
| 20260903150735 | 68 | 148 | 3.0 | 0.0 | 0.00 | 0.00 | 0.00 | 50 | 963.1 |
| 20260903150234 | 67 | 129 | 3.0 | 0.0 | 0.00 | 0.00 | 0.00 | 50 | 963.1 |
| 20260903145732 | 66 | 116 | 3.0 | 0.0 | 0.00 | 0.00 | 0.00 | 50 | 963.1 |
| 20260903145232 | 65 | 159 | 3.0 | 0.0 | 0.00 | 0.00 | 0.00 | 52 | 963.1 |
| 20260903144732 | 65 | 128 | 3.0 | 0.0 | 0.00 | 0.00 | 0.00 | 51 | 963.1 |
| 20260903144230 | 64 | 126 | 3.0 | 0.0 | 0.00 | 0.00 | 0.00 | 49 | 963.1 |
| 20260903143731 | 63 | 129 | 3.0 | 0.0 | 0.00 | 0.00 | 0.00 | 54 | 963.1 |
| 20260903143140 | 63 | 129 | 3.0 | 0.0 | 0.00 | 0.00 | 0.00 | 58 | 963.1 |
| 20260903142733 | 63 | 122 | 2.0 | 0.0 | 0.00 | 0.00 | 0.00 | 63 | 962.8 |
| 20260903142232 | 62 | 131 | 2.0 | 0.0 | 0.00 | 0.00 | 0.00 | 64 | 962.8 |
| 20260903141733 | 61 | 131 | 2.0 | 0.0 | 0.00 | 0.00 | 0.00 | 66 | 962.8 |
| 20260903141230 | 60 | 132 | 0.0 | 0.0 | 0.00 | 0.00 | 0.00 | 70 | 962.8 |
| 20260903140642 | 58 | 132 | 0.0 | 0.0 | 0.00 | 0.00 | 0.00 | 72 | 962.4 |
| 20260903140231 | 56 | 133 | 1.0 | 0.0 | 0.00 | 0.00 | 0.00 | 77 | 962.4 |
| 20260903135728 | 54 | 119 | 3.0 | 0.0 | 0.00 | 0.00 | 0.00 | 80 | 962.4 |
| 20260903135142 | 53 | 96 | 0.0 | 0.0 | 0.00 | 0.00 | 0.00 | 83 | 962.4 |
| 20260903134727 | 53 | 94 | 0.0 | 0.0 | 0.00 | 0.00 | 0.00 | 83 | 962.4 |
| 20260903134228 | 53 | 96 | 0.0 | 0.0 | 0.00 | 0.00 | 0.00 | 82 | 962.4 |
| 20260903133642 | 53 | 311 | 0.0 | 0.0 | 0.00 | 0.00 | 0.00 | 81 | 962.4 |
| 20260903133141 | 54 | 311 | 0.0 | 0.0 | 0.00 | 0.00 | 0.00 | 81 | 962.4 |
| 20260903132729 | 54 | 313 | 0.0 | 0.0 | 0.00 | 0.00 | 0.00 | 82 | 962.4 |
| 20260903132138 | 53 | 357 | 2.0 | 0.0 | 0.00 | 0.00 | 0.00 | 84 | 962.1 |
| 20260903131642 | 53 | 258 | 2.0 | 0.0 | 0.00 | 0.00 | 0.00 | 87 | 962.1 |
| 20260903131225 | 53 | 306 | 0.0 | 0.0 | 0.00 | 0.00 | 0.00 | 85 | 962.4 |
| 20260903130638 | 53 | 306 | 0.0 | 0.0 | 0.00 | 0.00 | 0.00 | 85 | 962.4 |
| 20260903130227 | 53 | 305 | 0.0 | 0.0 | 0.00 | 0.00 | 0.00 | 84 | 962.4 |
| 20260903125724 | 53 | 305 | 0.0 | 0.0 | 0.00 | 0.00 | 0.00 | 83 | 962.4 |
| 20260903125225 | 52 | 305 | 0.0 | 0.0 | 0.00 | 0.00 | 0.00 | 86 | 962.4 |
| 20260903124727 | 52 | 306 | 0.0 | 0.0 | 0.00 | 0.00 | 0.00 | 83 | 962.4 |
| 20260903124138 | 52 | 306 | 0.0 | 0.0 | 0.00 | 0.00 | 0.00 | 85 | 962.4 |
| 20260903123725 | 52 | 306 | 0.0 | 0.0 | 0.00 | 0.00 | 0.00 | 82 | 962.4 |
| 20260903123223 | 52 | 306 | 0.0 | 0.0 | 0.00 | 0.00 | 0.00 | 82 | 962.4 |
| 20260903122723 | 53 | 306 | 0.0 | 0.0 | 0.00 | 0.00 | 0.00 | 82 | 962.4 |
| 20260903122222 | 53 | 305 | 0.0 | 0.0 | 0.00 | 0.00 | 0.00 | 80 | 962.4 |
| 20260903121721 | 53 | 305 | 0.0 | 0.0 | 0.00 | 0.00 | 0.00 | 79 | 962.4 |
| 20260903121222 | 54 | 305 | 0.0 | 0.0 | 0.00 | 0.00 | 0.00 | 78 | 962.4 |
| 20260903120722 | 54 | 306 | 0.0 | 0.0 | 0.00 | 0.00 | 0.00 | 78 | 962.4 |
| 20260903120222 | 54 | 306 | 0.0 | 0.0 | 0.00 | 0.00 | 0.00 | 80 | 962.1 |
| 20260903115720 | 54 | 307 | 2.0 | 0.0 | 0.00 | 0.00 | 0.00 | 80 | 962.4 |
| 20260903115219 | 54 | 301 | 0.0 | 0.0 | 0.00 | 0.00 | 0.00 | 81 | 962.4 |
| 20260903114720 | 54 | 355 | 0.0 | 0.0 | 0.00 | 0.00 | 0.00 | 77 | 962.4 |
| 20260903114223 | 54 | 355 | 0.0 | 0.0 | 0.00 | 0.00 | 0.00 | 76 | 962.4 |
| 20260903113638 | 55 | 280 | 0.0 | 0.0 | 0.00 | 0.00 | 0.00 | 75 | 962.4 |
| 20260903113219 | 55 | 322 | 0.0 | 0.0 | 0.00 | 0.00 | 0.00 | 78 | 962.4 |
| 20260903112719 | 55 | 322 | 0.0 | 0.0 | 0.00 | 0.00 | 0.00 | 77 | 962.4 |
| 20260903112217 | 55 | 320 | 0.0 | 0.0 | 0.00 | 0.00 | 0.00 | 78 | 962.4 |
| 20260903111641 | 55 | 323 | 0.0 | 0.0 | 0.00 | 0.00 | 0.00 | 76 | 962.4 |
| 20260903111142 | 55 | 323 | 0.0 | 0.0 | 0.00 | 0.00 | 0.00 | 75 | 962.4 |
| 20260903110716 | 55 | 302 | 0.0 | 0.0 | 0.00 | 0.00 | 0.00 | 74 | 962.4 |
| 20260903110141 | 55 | 218 | 0.0 | 0.0 | 0.00 | 0.00 | 0.00 | 75 | 962.4 |
| 20260903105716 | 55 | 293 | 0.0 | 0.0 | 0.00 | 0.00 | 0.00 | 72 | 962.4 |
| 20260903105142 | 55 | 274 | 0.0 | 0.0 | 0.00 | 0.00 | 0.00 | 74 | 962.8 |
| 20260903104715 | 55 | 310 | 0.0 | 0.0 | 0.00 | 0.00 | 0.00 | 73 | 962.8 |
| 20260903104142 | 55 | 293 | 0.0 | 0.0 | 0.00 | 0.00 | 0.00 | 72 | 962.8 |
| 20260903103714 | 56 | 293 | 0.0 | 0.0 | 0.00 | 0.00 | 0.00 | 71 | 962.8 |
| 20260903103142 | 56 | 294 | 0.0 | 0.0 | 0.00 | 0.00 | 0.00 | 72 | 962.8 |
| 20260903102635 | 55 | 295 | 0.0 | 0.0 | 0.00 | 0.00 | 0.00 | 74 | 962.8 |
| 20260903102213 | 56 | 182 | 0.0 | 0.0 | 0.00 | 0.00 | 0.00 | 69 | 962.8 |
| 20260903101636 | 56 | 182 | 0.0 | 0.0 | 0.00 | 0.00 | 0.00 | 68 | 962.8 |
| 20260903101213 | 56 | 182 | 0.0 | 0.0 | 0.00 | 0.00 | 0.00 | 67 | 962.8 |
| 20260903100712 | 57 | 182 | 0.0 | 0.0 | 0.00 | 0.00 | 0.00 | 67 | 962.8 |
| 20260903100213 | 57 | 181 | 0.0 | 0.0 | 0.00 | 0.00 | 0.00 | 65 | 962.8 |
| 20260903095712 | 57 | 181 | 0.0 | 0.0 | 0.00 | 0.00 | 0.00 | 64 | 962.8 |
| 20260903095137 | 58 | 181 | 0.0 | 0.0 | 0.00 | 0.00 | 0.00 | 63 | 962.8 |
| 20260903094711 | 59 | 181 | 2.0 | 0.0 | 0.00 | 0.00 | 0.00 | 63 | 962.8 |
| 20260903094137 | 59 | 18 | 4.0 | 0.0 | 0.00 | 0.00 | 0.00 | 63 | 962.8 |
| 20260903093645 | 59 | 311 | 4.0 | 0.0 | 0.00 | 0.00 | 0.00 | 65 | 962.8 |
| 20260903093137 | 59 | 334 | 6.0 | 0.0 | 0.00 | 0.00 | 0.00 | 65 | 962.8 |
| 20260903092641 | 58 | 301 | 4.0 | 0.0 | 0.00 | 0.00 | 0.00 | 64 | 962.8 |
| 20260903092138 | 58 | 309 | 4.0 | 0.0 | 0.00 | 0.00 | 0.00 | 63 | 962.8 |
| 20260903091641 | 58 | 316 | 4.0 | 0.0 | 0.00 | 0.00 | 0.00 | 65 | 962.8 |
| 20260903091136 | 59 | 314 | 3.0 | 0.0 | 0.00 | 0.00 | 0.00 | 65 | 962.8 |
| 20260903090637 | 59 | 323 | 2.0 | 0.0 | 0.00 | 0.00 | 0.00 | 64 | 962.8 |
| 20260903090138 | 59 | 325 | 4.0 | 0.0 | 0.00 | 0.00 | 0.00 | 65 | 963.1 |
| 20260903085638 | 59 | 305 | 4.0 | 0.0 | 0.00 | 0.00 | 0.00 | 66 | 962.8 |
| 20260903085141 | 58 | 306 | 2.0 | 0.0 | 0.00 | 0.00 | 0.00 | 66 | 963.1 |
| 20260903084638 | 59 | 312 | 1.0 | 0.0 | 0.00 | 0.00 | 0.00 | 67 | 963.1 |
| 20260903084140 | 59 | 329 | 1.0 | 0.0 | 0.00 | 0.00 | 0.00 | 67 | 963.1 |
| 20260903083637 | 59 | 329 | 2.0 | 0.0 | 0.00 | 0.00 | 0.00 | 65 | 963.4 |
| 20260903083140 | 59 | 318 | 2.0 | 0.0 | 0.00 | 0.00 | 0.00 | 65 | 963.1 |
| 20260903082638 | 59 | 306 | 2.0 | 0.0 | 0.00 | 0.00 | 0.00 | 67 | 963.1 |
| 20260903082141 | 59 | 327 | 2.0 | 0.0 | 0.00 | 0.00 | 0.00 | 65 | 963.4 |
| 20260903081637 | 60 | 307 | 2.0 | 0.0 | 0.00 | 0.00 | 0.00 | 65 | 963.1 |
| 20260903081138 | 60 | 288 | 2.0 | 0.0 | 0.00 | 0.00 | 0.00 | 64 | 963.4 |
| 20260903080637 | 60 | 297 | 3.0 | 0.0 | 0.00 | 0.00 | 0.00 | 61 | 963.1 |
| 20260903080138 | 60 | 296 | 2.0 | 0.0 | 0.00 | 0.00 | 0.00 | 60 | 963.4 |
| 20260903075638 | 61 | 312 | 2.0 | 0.0 | 0.00 | 0.00 | 0.00 | 62 | 963.1 |
| 20260903075141 | 61 | 166 | 0.0 | 0.0 | 0.00 | 0.00 | 0.00 | 62 | 963.1 |
| 20260903074640 | 62 | 166 | 1.0 | 0.0 | 0.00 | 0.00 | 0.00 | 61 | 963.1 |
| 20260903074138 | 63 | 319 | 2.0 | 0.0 | 0.00 | 0.00 | 0.00 | 59 | 963.1 |
| 20260903073635 | 63 | 323 | 2.0 | 0.0 | 0.00 | 0.00 | 0.00 | 58 | 963.1 |
| 20260903073139 | 64 | 115 | 4.0 | 0.0 | 0.00 | 0.00 | 0.00 | 59 | 963.4 |
| 20260903072643 | 65 | 262 | 4.0 | 0.0 | 0.00 | 0.00 | 0.00 | 55 | 963.1 |
| 20260903072141 | 65 | 254 | 4.0 | 0.0 | 0.00 | 0.00 | 0.00 | 56 | 963.4 |
| 20260903071645 | 65 | 222 | 3.0 | 0.0 | 0.00 | 0.00 | 0.00 | 58 | 963.4 |
| 20260903071142 | 65 | 262 | 4.0 | 0.0 | 0.00 | 0.00 | 0.00 | 56 | 963.4 |
| 20260903070643 | 65 | 258 | 4.0 | 0.0 | 0.00 | 0.00 | 0.00 | 57 | 963.4 |
| 20260903070145 | 65 | 238 | 4.0 | 0.0 | 0.00 | 0.00 | 0.00 | 57 | 963.4 |
| 20260903065641 | 65 | 252 | 3.0 | 0.0 | 0.00 | 0.00 | 0.00 | 56 | 963.4 |
| 20260903065143 | 65 | 308 | 2.0 | 0.0 | 0.00 | 0.00 | 0.00 | 54 | 963.4 |
| 20260903064639 | 65 | 288 | 2.0 | 0.0 | 0.00 | 0.00 | 0.00 | 54 | 963.4 |
| 20260903064139 | 65 | 317 | 3.0 | 0.0 | 0.00 | 0.00 | 0.00 | 52 | 963.4 |
| 20260903063640 | 65 | 248 | 4.0 | 0.0 | 0.00 | 0.00 | 0.00 | 52 | 963.4 |
| 20260903063138 | 65 | 178 | 5.0 | 0.0 | 0.00 | 0.00 | 0.00 | 53 | 963.4 |
| 20260903062638 | 64 | 180 | 5.0 | 0.0 | 0.00 | 0.00 | 0.00 | 54 | 963.4 |
| 20260903062238 | 64 | 213 | 3.0 | 0.0 | 0.00 | 0.00 | 0.00 | 57 | 963.4 |
| 20260903061639 | 65 | 233 | 3.0 | 0.0 | 0.00 | 0.00 | 0.00 | 55 | 963.4 |
| 20260903061137 | 65 | 163 | 2.0 | 0.0 | 0.00 | 0.00 | 0.00 | 56 | 963.4 |
| 20260903060638 | 65 | 283 | 4.0 | 0.0 | 0.00 | 0.00 | 0.00 | 56 | 963.4 |
| 20260903060140 | 65 | 148 | 4.0 | 0.0 | 0.00 | 0.00 | 0.00 | 57 | 963.4 |
| 20260903055636 | 65 | 235 | 5.0 | 0.0 | 0.00 | 0.00 | 0.00 | 57 | 963.4 |
| 20260903055137 | 65 | 296 | 6.0 | 0.0 | 0.00 | 0.00 | 0.00 | 57 | 963.4 |
| 20260903054636 | 65 | 303 | 5.0 | 0.0 | 0.00 | 0.00 | 0.00 | 57 | 963.4 |
| 20260903054135 | 65 | 232 | 3.0 | 0.0 | 0.00 | 0.00 | 0.00 | 55 | 963.4 |
| 20260903053635 | 65 | 200 | 3.0 | 0.0 | 0.00 | 0.00 | 0.00 | 54 | 963.4 |
| 20260903053134 | 66 | 162 | 3.0 | 0.0 | 0.00 | 0.00 | 0.00 | 51 | 963.4 |
| 20260903052647 | 66 | 155 | 4.0 | 0.0 | 0.00 | 0.00 | 0.00 | 49 | 963.4 |
| 20260903052136 | 67 | 168 | 2.0 | 0.0 | 0.00 | 0.00 | 0.00 | 47 | 963.4 |
| 20260903051634 | 67 | 121 | 3.0 | 0.0 | 0.00 | 0.00 | 0.00 | 46 | 963.4 |
| 20260903051134 | 67 | 204 | 3.0 | 0.0 | 0.00 | 0.00 | 0.00 | 47 | 963.4 |
| 20260903050633 | 68 | 144 | 4.0 | 0.0 | 0.00 | 0.00 | 0.00 | 50 | 963.4 |
| 20260903050134 | 67 | 108 | 5.0 | 0.0 | 0.00 | 0.00 | 0.00 | 50 | 963.4 |
| 20260903045632 | 68 | 288 | 3.0 | 0.0 | 0.00 | 0.00 | 0.00 | 50 | 963.4 |
| 20260903045138 | 68 | 343 | 3.0 | 0.0 | 0.00 | 0.00 | 0.00 | 49 | 963.4 |
| 20260903044641 | 69 | 327 | 7.0 | 0.0 | 0.00 | 0.00 | 0.00 | 48 | 963.4 |
| 20260903044142 | 69 | 138 | 10.0 | 0.0 | 0.00 | 0.00 | 0.00 | 48 | 963.4 |
| 20260903043641 | 69 | 121 | 10.0 | 0.0 | 0.00 | 0.00 | 0.00 | 50 | 963.1 |
| 20260903043131 | 69 | 147 | 6.0 | 0.0 | 0.00 | 0.00 | 0.00 | 53 | 963.1 |
| 20260903042637 | 69 | 41 | 6.0 | 0.0 | 0.00 | 0.00 | 0.00 | 54 | 963.1 |
| 20260903042136 | 69 | 98 | 6.0 | 0.0 | 0.00 | 0.00 | 0.00 | 54 | 963.1 |
| 20260903041738 | 69 | 10 | 6.0 | 0.0 | 0.00 | 0.00 | 0.00 | 54 | 963.1 |
| 20260903041430 | 69 | 156 | 4.0 | 0.0 | 0.00 | 0.00 | 0.00 | 53 | 963.1 |
| 20260903040641 | 69 | 24 | 4.0 | 0.0 | 0.00 | 0.00 | 0.00 | 51 | 963.1 |
| 20260903040140 | 70 | 307 | 7.0 | 0.0 | 0.00 | 0.00 | 0.00 | 50 | 963.1 |
| 20260903035641 | 70 | 18 | 7.0 | 0.0 | 0.00 | 0.00 | 0.00 | 50 | 962.8 |
| 20260903035143 | 70 | 131 | 7.0 | 0.0 | 0.00 | 0.00 | 0.00 | 50 | 962.8 |
| 20260903034636 | 70 | 339 | 3.0 | 0.0 | 0.00 | 0.00 | 0.00 | 48 | 962.8 |
| 20260903034138 | 70 | 152 | 5.0 | 0.0 | 0.00 | 0.00 | 0.00 | 48 | 962.8 |
| 20260903033639 | 70 | 144 | 7.0 | 0.0 | 0.00 | 0.00 | 0.00 | 48 | 962.4 |
| 20260903033138 | 71 | 43 | 7.0 | 0.0 | 0.00 | 0.00 | 0.00 | 47 | 962.4 |
| 20260903032639 | 71 | 126 | 7.0 | 0.0 | 0.00 | 0.00 | 0.00 | 46 | 962.4 |
| 20260903032136 | 72 | 115 | 6.0 | 0.0 | 0.00 | 0.00 | 0.00 | 44 | 962.4 |
| 20260903031641 | 73 | 126 | 8.0 | 0.0 | 0.00 | 0.00 | 0.00 | 42 | 962.4 |
| 20260903031138 | 73 | 180 | 8.0 | 0.0 | 0.00 | 0.00 | 0.00 | 40 | 962.4 |
| 20260903030626 | 74 | 162 | 9.0 | 0.0 | 0.00 | 0.00 | 0.00 | 38 | 962.1 |
| 20260903030135 | 74 | 109 | 9.0 | 0.0 | 0.00 | 0.00 | 0.00 | 36 | 962.1 |
| 20260903025638 | 74 | 121 | 9.0 | 0.0 | 0.00 | 0.00 | 0.00 | 35 | 962.1 |
| 20260903025135 | 74 | 93 | 8.0 | 0.0 | 0.00 | 0.00 | 0.00 | 33 | 962.1 |
| 20260903024639 | 74 | 179 | 5.0 | 0.0 | 0.00 | 0.00 | 0.00 | 33 | 962.1 |
| 20260903024124 | 74 | 113 | 4.0 | 0.0 | 0.00 | 0.00 | 0.00 | 32 | 962.1 |